Location: Zapote
(9.9191°N, 84.0597°W)
Time: 04:03:31
(UTC-06:00)

N. Korean satellite - Pass Details

Date: 24 January 2021
Orbit: 451 x 503 km, 97.2° (Epoch: 27 February)

Event Time Altitude Azimuth Distance (km) Brightness Sun altitude
Rises 04:03:35 0° 36° (NE) 2,453 10.4 -27.9°
Reaches altitude 10° 04:06:11 10° 58° (ENE) 1,577 9.6 -27.2°
Maximum altitude 04:08:22 16° 99° (E) 1,238 9.4 -26.7°
Drops below altitude 10° 04:10:34 10° 140° (SE) 1,576 9.9 -26.2°
Sets 04:13:09 0° 162° (SSE) 2,449 10.6 -25.6°
